Regional Weather Roundup
Issued by NWS

Home | Current Version | Previous Version | Graphics & Text | Print | Product List | Glossary On
Versions: 1 2 3 4 5 6 7 8 9 10 11 12 13 14 15 16 17 18 19 20 21 22 23 24 25 26 27 28 29 30 31 32 33 34 35 36 37 38 39 40 41 42 43 44 45 46 47 48 49 50
000
ASUS45 KBOI 241810
RWRID

IDAHO REGIONAL WEATHER ROUNDUP
NATIONAL WEATHER SERVICE BOISE ID
1200 PM MDT MON APR 24 2017

NOTE: "FAIR" INDICATES FEW OR NO CLOUDS BELOW 12000 FEET
WITH NO SIGNIFICANT WEATHER AND/OR OBSTRUCTIONS TO VISIBILITY

IDZ012-014-241900-
SOUTHWEST IDAHO


CITY           SKY/WX    TMP DP  RH WIND       PRES   REMARKS
BOISE          LGT RAIN  46  42  86 W8        29.75R
CALDWELL       LGT RAIN  48  42  80 SW6       29.75S
MOUNTAIN HOME  LGT RAIN  47  47 100 NW14      29.74R
$$

IDZ016-017-241900-
SOUTHCENTRAL IDAHO


CITY           SKY/WX    TMP DP  RH WIND       PRES   REMARKS
BURLEY         RAIN      44  39  82 W7        29.70S
JEROME         LGT RAIN  44  41  89 W12       29.72S
TWIN FALLS     LGT RAIN  45  40  82 W17       29.72S
$$

IDZ019>023-241900-
SOUTHEAST IDAHO


CITY           SKY/WX    TMP DP  RH WIND       PRES   REMARKS
IDAHO FALLS    CLOUDY    42  39  89 S13       29.70S
POCATELLO      LGT RAIN  43  41  93 W13       29.71S
REXBURG        CLOUDY    43  37  79 S16G25    29.67S
$$

IDZ006-010-011-018-031-032-241900-
CENTRAL IDAHO MOUNTAINS


CITY           SKY/WX    TMP DP  RH WIND       PRES   REMARKS
MCCALL         CLOUDY    39  34  82 S7        29.65R WCI  34
HAILEY         DRIZZLE   39  37  93 E5        29.69F
STANLEY          N/A     36  34  92 VRB3      29.65F
SALMON         CLOUDY    46  36  66 W3        29.62F
CHALLIS        CLOUDY    47  32  56 CALM      29.62F
$$

IDZ002-004-006-007-026-241900-
NORTHERN IDAHO


CITY           SKY/WX    TMP DP  RH WIND       PRES   REMARKS
LEWISTON       CLOUDY    50  42  74 S3        29.71S
LOWELL           N/A     52  42  69 CALM      29.68F
COEUR D`ALENE  LGT RAIN  47  42  83 W9        29.70S
MULLAN PASS    LGT SNOW  32  30  92 CALM      29.64S FOG
$$



USA.gov is the U.S. government's official web portal to all federal, state and local government web resources and services.